Location: Copaci
(45.6167°N, 22.8833°E)
Time: 16:33:24
(UTC+00:00)

Daily predictions for brighter satellites

Satellite Brightness Start Highest point End
(mag) Time Altitude Azimuth Time Altitude Azimuth Time Altitude Azimuth
Atlas Centaur 2 4.1 18:47:12 10° SW 18:53:34 25° S 18:59:57 10° ESE
IRIDIUM 114 4.4 18:50:36 10° N 18:55:50 70° E 19:01:02 10° S
SL-16 R/B 3.4 18:51:20 10° N 18:56:18 30° NE 19:01:13 10° ESE
Cosmos 2369 3.8 18:52:23 10° NNW 18:58:09 82° ENE 19:03:53 10° SSE
ERS-1 Rocket 3.6 18:54:04 10° SE 18:58:48 43° ENE 19:03:33 10° N
Cosmos 1763 Rocket 3.6 18:54:45 10° NNW 19:00:02 70° ENE 19:05:12 10° SSE
Cosmos 2082 Rocket 2.2 18:54:31 10° SSW 19:00:14 79° ESE 19:05:57 10° NNE
Resurs 01 Rocket 3.2 18:58:59 10° SSW 19:03:00 34° W 19:07:01 10° NNW
Spot 2 Rocket 4.3 18:58:39 10° SE 19:03:15 36° ENE 19:07:52 10° N
Cosmos 1441 Rocket 4.1 19:00:58 10° N 19:04:12 30° ENE 19:07:27 10° SE
BREEZE-M DEB (TANK) 2.5 19:02:35 10° SW 19:04:43 40° SE 19:07:39 10° ENE
IRIDIUM 103 4.4 18:59:45 10° N 19:05:00 84° E 19:10:14 10° S
Lacrosse 5 rocket 3.8 19:03:53 10° W 19:05:56 13° WSW 19:07:58 10° SSW
RESURS DK-1 4.4 19:03:16 10° N 19:05:59 17° NE 19:08:44 10° E
SPOT 5 2.6 19:04:28 10° SSE 19:08:45 80° ENE 19:13:08 10° N
Cosmos 1933 Rocket 3.8 19:05:13 10° N 19:09:35 55° ENE 19:13:56 10° SSE
Centaur D AC-29 4.3 19:05:54 10° SW 19:11:42 27° SSE 19:33:03 10° ESE
Cosmos 1470 2.7 19:08:58 10° N 19:12:39 63° E 19:16:18 10° SSE
ATLAS 2AS CENTAUR R/B 4.1 19:06:39 10° NNW 19:12:39 30° NNE 19:18:27 10° E
Cosmos 1626 4.5 19:16:11 10° SW 19:18:42 21° WNW 19:21:13 10° NNW
IRS-1C Rocket 4.1 19:13:44 10° SSE 19:18:59 85° ENE 19:24:17 10° NNW
Cosmos 1908 3.3 19:16:48 10° N 19:20:19 51° ENE 19:23:31 12° SSE
BREEZE-M DEB (TANK) 3.6 19:11:13 10° WSW 19:23:36 73° NNW 19:26:56 10° NE
Cosmos 1674 3.0 19:22:28 10° SSW 19:25:52 58° W 19:29:18 10° N
Cosmos 468 Rocket 4.0 19:21:48 10° NNW 19:27:04 79° ENE 19:31:49 12° SSE
Ariane Rocket 3.3 19:22:59 11° SSE 19:27:40 56° ENE 19:32:38 10° N
KORONAS-FOTON 4.0 19:27:54 10° SSW 19:31:35 68° W 19:35:20 10° N
COSMOS 2406 3.5 19:27:30 10° SSW 19:33:15 73° WNW 19:39:01 10° NNE
Cosmos 1842 3.8 19:31:28 10° SSW 19:35:03 56° W 19:38:40 10° N
Meteor 1-13 Rocket 4.3 19:29:58 10° S 19:35:45 69° E 19:41:26 10° NNE
SPOT 3 Rocket 3.7 19:31:38 13° SSE 19:36:08 60° ENE 19:41:14 10° N
Cosmos 1553 Rocket 4.2 19:30:38 10° NNW 19:36:48 76° W 19:43:01 10° S
S3M 4.2 19:32:34 10° N 19:38:55 63° ENE 19:44:24 14° SSE
Cosmos 1980 Rocket 3.4 19:35:51 10° NW 19:41:01 36° WSW 19:46:07 10° S
Cosmos 2322 Rocket 3.0 19:35:47 10° NNW 19:41:07 40° NE 19:45:40 14° ESE
Cosmos 1655 Rocket 4.5 19:38:03 12° SSE 19:43:36 46° E 19:49:39 10° NNE
ARGOS Delta rocket 4.4 19:40:05 10° S 19:44:28 50° W 19:48:47 10° NNW
SL-27 R/B 4.1 19:48:09 13° E 19:48:09 13° E 19:49:10 10° ENE
Cosmos 2278 3.7 19:44:20 10° NNW 19:50:05 87° ENE 19:54:32 17° SSE
Okean-O 4.5 19:47:22 10° SSW 19:51:03 26° W 19:54:46 10° NW
USA 281 4.3 19:45:55 10° ESE 19:51:38 33° NE 19:57:23 10° N
SJ 16-02 3.0 19:52:11 15° ESE 19:53:15 17° E 19:55:59 10° ENE
Cosmos 2266 Rocket 4.0 19:47:18 10° S 19:53:35 77° E 19:59:59 10° N
Landsat 5 3.8 19:52:34 10° NNE 19:56:22 42° E 19:58:50 20° SSE
Cosmos 540 Rocket 4.1 19:52:23 10° NNW 19:57:23 52° WSW 20:01:44 13° S
USA 245 3.9 19:56:51 14° SSW 19:59:25 45° W 20:03:17 10° NNW
Landsat 4 3.6 19:59:02 19° S 20:01:20 69° WSW 20:04:47 10° NNW
Cosmos 2237 4.2 19:56:03 10° NNW 20:01:50 86° WSW 20:05:58 20° SSE
MetOp-A 4.3 19:59:26 19° SE 20:03:00 57° ENE 20:08:09 10° N
Terra 2.3 19:59:05 13° S 20:03:11 57° W 20:07:51 10° NNW
Cosmos 1400 Rocket 2.6 20:00:07 15° S 20:03:20 81° E 20:07:13 10° NNE
Cosmos 968 Rocket 4.2 20:01:08 20° SSE 20:03:54 33° ESE 20:08:31 10° NE
Cosmos 1733 Rocket 3.6 20:00:34 10° N 20:04:49 45° ENE 20:07:15 23° SE
Tiangong -0.8 20:02:20 10° WSW 20:04:56 23° SSW 20:05:19 23° S
Okean 3 4.5 20:03:17 21° SE 20:04:58 29° E 20:08:35 10° NNE
SL-08 ROCKET BODY 4.4 19:58:51 10° S 20:05:01 85° E 20:11:07 10° N
Cosmos 1707 4.4 20:04:16 10° SW 20:07:28 29° WNW 20:10:41 10° NNW
Cosmos 2219 Rocket 3.6 20:04:51 10° N 20:09:47 29° NE 20:14:05 13° ESE
Cosmos 2228 Rocket 3.2 20:07:18 20° S 20:10:20 61° E 20:14:51 10° NNE
SL-4 R/B 3.5 20:07:47 10° WNW 20:11:24 37° N 20:15:15 10° ENE
Meteor 2-10 Rocket 3.6 20:10:06 10° N 20:15:46 88° E 20:19:27 21° S
SeaSat 1 3.7 20:12:15 13° S 20:16:05 32° WSW 20:20:30 10° NW
Cosmos 1315 Rocket 4.2 20:15:49 20° ESE 20:16:43 22° E 20:19:48 10° NE
Meteor 1-15 Rocket 4.4 20:11:30 10° NNW 20:17:03 70° W 20:21:17 18° S
ATLAS CENTAUR R/B 1.5 20:17:21 32° SSE 20:18:09 37° ESE 20:21:28 10° NE
USA 234 3.8 20:14:04 10° NE 20:20:29 61° NNW 20:26:54 10° WSW
Meteor 1-23 Rocket 4.3 20:16:40 12° SSW 20:21:57 84° W 20:27:43 10° N
EXPRESS MD2 3.2 20:19:53 10° W 20:22:21 43° NNW 20:24:27 10° ENE
Cosmos 1953 3.7 20:21:17 10° NNE 20:24:27 24° ENE 20:25:44 20° ESE
H-2A R/B 4.4 20:23:31 14° E 20:25:41 19° ENE 20:28:45 10° NNE
Cosmos 1455 3.6 20:26:17 10° NNE 20:29:04 22° ENE 20:29:57 20° E
Okean 1-7 3.9 20:28:24 27° SE 20:29:48 34° E 20:33:44 10° NNE
Cosmos 2315 Rocket 4.1 20:23:27 10° N 20:29:51 81° W 20:34:21 21° S
MOS 1 Rocket 4.5 20:26:39 14° SSW 20:30:59 44° W 20:36:06 10° NNW
CZ-2C R/B 4.3 20:27:58 10° NNE 20:32:04 37° E 20:33:28 29° SE
Cosmos 2360 Rocket 2.3 20:27:25 10° NNW 20:33:07 74° ENE 20:36:22 26° SE
Cosmos 841 Rocket 4.0 20:32:31 10° NNW 20:37:39 54° WSW 20:40:43 23° S
Cosmos 2333 Rocket 2.3 20:32:08 10° NNW 20:37:54 74° ENE 20:41:09 27° SE
SL-16 R/B 2.7 20:35:10 10° NW 20:40:38 50° WSW 20:43:56 23° S
Atlas Centaur 2 3.9 20:35:18 10° WSW 20:41:47 26° S 20:43:36 24° SSE
RESURS DK-1 2.6 20:40:04 10° NW 20:44:05 58° WSW 20:45:34 35° S
SL-14 R/B 3.9 20:42:16 20° SSW 20:44:39 50° WNW 20:48:22 10° N
Cosmos 839 Rocket 4.3 20:40:12 10° NNW 20:47:11 65° NE 20:51:07 24° SE
Cosmos 1300 3.6 20:48:09 10° NNW 20:51:29 38° W 20:52:53 26° SW
Cosmos 1833 4.1 20:48:14 22° SSW 20:51:58 72° ESE 20:57:35 10° NNE
Aureole 3 3.3 20:50:55 35° SSW 20:52:27 82° W 20:56:58 10° N
Cosmos 1703 Rocket 4.1 20:55:40 35° SE 20:56:53 44° E 21:01:08 10° NNE
Cosmos 1862 Rocket 4.0 20:55:44 23° SSW 20:58:18 58° WNW 21:02:40 10° N
Cosmos 1346 Rocket 3.6 20:56:30 10° NNW 21:00:10 41° W 21:01:35 29° SW
Meteor 1-16 Rocket 4.3 20:56:41 10° NNW 21:02:38 82° W 21:05:41 31° S
ATLAS 2AS CENTAUR R/B 2.6 20:57:28 10° NW 21:04:19 83° SW 21:07:52 30° SSE
Cosmos 2237 Rocket 4.4 21:01:13 10° N 21:05:05 18° NE 21:08:54 10° E
Meteor 1-4 Rocket 2.4 21:09:49 52° WSW 21:10:08 56° WNW 21:13:05 10° N
Cosmos 2333 4.2 21:04:31 10° NNW 21:10:19 82° WSW 21:12:55 34° SSE
BlueWalker 3 4.4 21:15:45 11° E 21:15:45 11° E 21:15:55 10° E
ARIANE 5 R/B 2.6 21:17:31 44° S 21:18:49 74° WSW 21:23:10 10° NNW
SL-27 R/B 3.9 21:19:33 19° W 21:20:31 24° WNW 21:22:51 10° N
Cosmos 1745 Rocket 4.2 21:20:33 33° SSE 21:23:21 61° E 21:29:37 10° NNE
Cosmos 1241 Rocket 4.3 21:19:44 21° SSW 21:24:03 85° ESE 21:30:20 10° NE
Cosmos 2322 Rocket 3.2 21:19:58 10° NW 21:25:05 35° WSW 21:27:28 25° SSW
PSLV R/B 3.8 21:21:48 10° NNE 21:25:49 81° WNW 21:26:52 48° SSW
Okean 2 3.7 21:24:44 38° SW 21:26:00 58° W 21:29:58 10° N
Cosmos 1570 Rocket 4.3 21:21:28 10° NNW 21:26:48 62° ENE 21:29:00 34° SE
COSMOS 2455 3.8 21:25:53 28° SE 21:26:58 30° ESE 21:32:06 10° NE
SJ 16-02 2.0 21:28:54 24° SW 21:31:10 49° WNW 21:35:24 10° N
Cosmos 2297 Rocket 3.6 21:31:23 20° ESE 21:32:14 21° E 21:36:19 10° NE
Nadezhda 1 Rocket 4.0 21:27:59 10° N 21:34:20 82° E 21:37:05 36° SSE
USA 281 3.4 21:32:45 32° S 21:35:49 59° WSW 21:42:20 10° NNW
Cosmos 1386 Rocket 4.5 21:39:28 33° S 21:42:32 85° W 21:48:48 10° N
GP-B 3.6 21:39:04 10° N 21:43:22 53° W 21:44:46 37° SW
COSMOS 2428 2.9 21:38:01 10° NNW 21:43:43 67° ENE 21:46:14 33° SE
Cosmos 1408 2.8 21:50:12 47° NE 21:50:12 47° NE 21:52:33 10° NNE
GEOS 3 Rocket 4.3 21:45:22 10° NE 21:50:01 34° ESE 21:50:25 33° SE
SL-4 R/B 3.4 21:46:59 10° WNW 21:50:49 39° NNE 21:54:51 10° E
Cosmos 1315 Rocket 4.3 21:51:04 22° WSW 21:52:41 30° WNW 21:56:15 10° N
Cosmos 1908 Rocket 4.4 21:49:47 10° NNW 21:53:49 38° W 21:54:53 32° SW
Cosmos 2219 Rocket 2.6 21:48:30 10° NW 21:53:59 51° WSW 21:55:47 37° SSW
ATLAS CENTAUR R/B 3.4 21:53:07 10° W 21:55:55 22° NW 21:58:48 10° NNE
Cosmos 1782 Rocket 3.5 21:52:02 10° NNW 21:56:21 70° W 21:57:10 54° SSW
Cosmos 2208 Rocket 3.9 21:52:14 10° NNW 21:57:28 84° ENE 21:59:07 45° SSE
Spot 2 4.4 21:57:38 46° S 21:59:10 83° WSW 22:04:17 10° NNW
Cosmos 1953 3.7 21:57:02 10° NW 22:00:12 25° W 22:00:51 24° WSW
H-2A R/B 3.0 21:59:30 41° SW 22:00:17 46° W 22:04:26 10° NNW
Cosmos 158 Rocket 3.9 21:55:21 10° NNW 22:00:42 83° ENE 22:02:24 44° SSE
Cosmos 371 Rocket 3.6 22:00:27 43° SE 22:01:13 47° ESE 22:05:50 10° NNE
Cosmos 836 Rocket 4.5 21:57:24 10° NNW 22:02:38 77° ENE 22:04:23 43° SE
Cosmos 1455 3.7 22:00:37 10° NW 22:03:25 23° W 22:03:41 23° W
Cosmos 1242 Rocket 3.8 22:04:20 24° WNW 22:04:20 24° WNW 22:06:30 10° NNW
Spot 4 4.2 22:03:33 42° SSW 22:04:45 54° W 22:09:29 10° NNW
Cosmos 773 Rocket 4.5 22:02:38 10° NNW 22:07:40 53° ENE 22:09:47 32° SE
CZ-4C R/B 2.0 22:11:44 45° SE 22:12:09 46° ESE 22:17:15 10° NE
ALOS 2 2.7 22:11:53 51° SW 22:12:39 60° W 22:17:01 10° NNW
Cosmos 1503 Rocket 4.5 22:11:39 40° SE 22:12:52 48° ESE 22:17:58 10° NNE
CENTAUR R/B 3.9 22:13:10 17° ESE 22:14:05 18° ESE 22:18:09 10° ENE
Cosmos 2360 Rocket 4.0 22:12:47 10° WNW 22:16:26 18° W 22:18:06 16° WSW
GENESIS II 4.3 22:15:59 56° W 22:16:27 63° NW 22:20:05 10° NNE
Cosmos 1300 Rocket 3.9 22:14:29 10° NNW 22:18:39 48° W 22:19:20 44° SW
Okean 2 Rocket 4.1 22:14:43 10° N 22:18:54 39° ENE 22:20:12 31° ESE
Cosmos 2333 Rocket 4.0 22:17:45 10° WNW 22:21:31 18° W 22:23:08 16° WSW
H-2A R/B 2.1 22:18:45 10° NNE 22:22:59 58° ESE 22:23:29 53° SE
Cosmos 1709 Rocket 4.1 22:20:20 35° SSW 22:23:10 73° W 22:29:34 10° N
Cosmos 2221 Rocket 4.2 22:31:49 40° SE 22:32:38 45° E 22:36:54 10° NNE
Cosmos 1674 Rocket 3.9 22:34:20 46° SE 22:35:04 52° E 22:39:18 10° NNE
BREEZE-M DEB (TANK) 3.4 22:25:54 10° WNW 22:35:07 60° N 22:38:09 10° E
Cosmos 2098 Rocket 4.0 22:29:36 10° N 22:36:14 85° W 22:38:55 39° S
Cosmos 2242 Rocket 4.4 22:36:20 35° WSW 22:37:36 44° WNW 22:42:00 10° N
Cosmos 1378 Rocket 3.6 22:37:10 56° SSE 22:37:52 67° E 22:42:13 10° NNE
Sich 1 Rocket 3.8 22:34:58 10° N 22:39:20 62° E 22:40:19 48° SE
Cosmos 1486 Rocket 4.2 22:38:07 38° SW 22:40:02 66° WNW 22:45:14 10° NNE
SL-16 R/B 4.0 22:35:50 10° N 22:40:42 28° NE 22:45:30 10° ESE
NOSS 0 Rocket 3.9 22:34:48 10° NNW 22:41:01 70° WSW 22:43:20 40° S
Meteor 1-24 Rocket 3.8 22:39:51 40° SSW 22:42:05 76° WNW 22:47:48 10° N
Cosmos 2154 Rocket 4.4 22:46:40 32° SSE 22:49:20 52° E 22:55:23 10° NNE
Cosmos 2237 Rocket 2.1 22:44:17 10° NNW 22:49:59 87° ENE 22:52:21 37° SSE
Cosmos 2084 Rocket 3.9 22:50:08 42° ESE 22:50:08 42° ESE 22:54:06 10° NE
Cosmos 1025 Rocket 4.2 22:49:51 28° ESE 22:50:51 31° E 22:54:42 10° NNE
BlueWalker 3 2.1 22:50:03 49° W 22:50:52 67° NNW 22:54:37 10° NE
Cosmos 1825 2.1 22:51:34 59° E 22:51:34 59° E 22:54:51 10° NNE
Cosmos 1354 Rocket 4.0 22:51:12 46° S 22:52:49 79° ESE 22:58:08 10° NNE
Cosmos 332 Rocket 4.1 22:52:48 44° SSE 22:53:53 55° ESE 22:58:40 10° NNE
ATLAS 2AS CENTAUR R/B 4.3 22:50:14 10° WNW 22:54:07 16° WSW 22:55:16 16° WSW
Cosmos 2227 Rocket 2.6 22:53:35 38° SSE 22:55:17 50° ESE 23:00:45 10° NE
Cosmos 405 Rocket 2.7 22:52:11 10° NNW 22:55:53 60° W 22:55:58 60° WSW
Cosmos 1328 4.4 22:55:33 40° ESE 22:56:00 42° E 22:59:41 10° NNE
Cosmos 304 Rocket 4.0 22:55:48 41° SW 22:57:16 63° WNW 23:02:01 10° NNE
Cosmos 1980 3.6 22:56:59 10° NNW 23:02:39 72° WSW 23:04:39 41° S
Meteor 2-5 Rocket 4.4 23:03:32 30° SW 23:06:07 49° WNW 23:11:50 10° N
COSMOS 2455 3.4 23:08:59 23° WSW 23:12:36 54° NW 23:18:32 10° NNE
Cosmos 2219 4.0 23:12:45 30° SSE 23:14:41 39° ESE 23:19:52 10° NE
Cosmos 2297 Rocket 2.4 23:13:10 32° SW 23:15:43 64° WNW 23:21:21 10° NNE
Cosmos 2181 Rocket 4.4 23:13:57 10° NNW 23:19:52 48° W 23:22:13 33° SW
CZ-2D R/B 4.1 23:18:18 10° NE 23:21:57 18° E 23:25:12 11° SE
Okean 1 Rocket 3.0 23:21:23 10° NNW 23:25:42 67° W 23:26:38 50° SSW
COSMOS 2428 4.2 23:23:22 10° NW 23:27:22 20° W 23:28:13 19° WSW
GEOS 3 Rocket 4.3 23:23:10 10° NNE 23:28:09 49° NW 23:31:28 20° WSW
SL-4 R/B 1.9 23:25:42 10° WNW 23:29:53 82° SSW 23:34:13 10° ESE
IDEFIX/ARIANE 42P 4.0 23:25:30 10° NE 23:30:04 29° E 23:32:47 19° SE
Cosmos 2074 Rocket 4.3 23:33:38 32° SW 23:36:28 57° WNW 23:42:36 10° N
Cosmos 1892 3.8 23:38:13 27° W 23:38:35 28° WNW 23:41:40 10° NNW
Aureole 1 Rocket 3.1 23:40:08 42° SE 23:40:41 46° ESE 23:44:33 10° NNE
NOSS 8 (A) 4.2 23:46:01 10° NW 23:49:06 78° SW 23:49:44 55° SSE
Cosmos 990 Rocket 3.9 23:48:51 36° SSW 23:50:59 76° WNW 23:56:08 10° NNE
Cosmos 1975 Rocket 3.1 23:49:29 38° S 23:51:01 71° E 23:55:24 10° NNE
MOZ.5/SAFIR/RUBIN 5/SL-8 3.8 23:49:47 27° SSE 23:52:17 75° ENE 23:56:56 10° N
Cosmos 2263 Rocket 2.5 23:50:27 30° S 23:53:02 56° ESE 23:58:28 10° NE
Cosmos 1461 4.4 23:54:22 20° SE 23:55:19 22° ESE 23:58:25 10° ENE
